User: anonymous   Login
Location: Wells
(51.2093°N, 2.6446°W)
Time: 23:21:39
(UTC+00:00)
Language:

QB50P2 - Orbit

View from above orbital plane
View from above orbital plane
View from above satellite
View from above satellite

Ground track
Ground track

The orbit is defined by the following mean orbital elements,

1 40032U          26071.50585005 +.00000000 +00000-0 +52853-3 0 00002
2 40032  98.0737  62.4857 0008898 134.3660 225.8300 15.13730731    04
Epoch (UTC): 12 March 2026 12:08:25
Eccentricity: 0.0008898
inclination: 98.0737°
perigee height: 519 km
apogee height: 531 km
right ascension of ascending node: 62.4857°
argument of perigee: 134.3660°
revolutions per day: 15.13730731
mean anomaly at epoch: 225.8300°

The dashed part of the orbit path shows where the satellite is in the earth's shadow,  

DLR